Time,TemperatureF,DewpointF,PressureIn,WindDirection,WindDirectionDegrees,WindSpeedMPH,WindSpeedGustMPH,Humidity,HourlyPrecipIn,Conditions,Clouds,dailyrainin,SoftwareType,DateUTC
2013-06-12 00:34:00,74.0,-99.9,29.79,West,262,-999.0,-999.0,-999,-99.99,,,-99.99,,2013-06-12 04:34:00,
2013-06-12 00:43:00,74.0,-99.9,29.79,West,262,-999.0,-999.0,-999,-99.99,,,-99.99,,2013-06-12 04:43:00,
2013-06-12 00:52:00,73.0,-99.9,29.80,West,262,-999.0,-999.0,-999,-99.99,,,-99.99,,2013-06-12 04:52:00,
2013-06-12 01:22:00,73.0,-99.9,29.80,West,262,-999.0,-999.0,-999,-99.99,,,-99.99,,2013-06-12 05:22:00,
2013-06-12 01:32:00,73.0,-99.9,29.80,West,262,-999.0,-999.0,-999,-99.99,,,-99.99,,2013-06-12 05:32:00,
2013-06-12 01:43:00,73.0,-99.9,29.80,West,262,-999.0,-999.0,-999,-99.99,,,-99.99,,2013-06-12 05:43:00,
2013-06-12 01:52:00,71.0,-99.9,29.80,West,262,-999.0,-999.0,-999,-99.99,,,-99.99,,2013-06-12 05:52:00,
2013-06-12 02:22:00,71.0,-99.9,29.80,West,262,-999.0,-999.0,-999,-99.99,,,-99.99,,2013-06-12 06:22:00,
2013-06-12 02:32:00,71.0,-99.9,29.80,West,262,-999.0,-999.0,-999,-99.99,,,-99.99,,2013-06-12 06:32:00,
2013-06-12 02:42:00,71.0,-99.9,29.80,West,262,-999.0,-999.0,-999,-99.99,,,-99.99,,2013-06-12 06:42:00,
2013-06-12 02:52:00,70.0,-99.9,29.80,West,262,-999.0,-999.0,-999,0.00,,,-99.99,,2013-06-12 06:52:00,
2013-06-12 03:33:00,70.0,-99.9,29.80,West,262,-999.0,-999.0,-999,0.00,,,-99.99,,2013-06-12 07:33:00,
2013-06-12 03:43:00,70.0,-99.9,29.80,West,262,-999.0,-999.0,-999,0.00,,,-99.99,,2013-06-12 07:43:00,
2013-06-12 03:52:00,70.0,-99.9,29.80,West,262,-999.0,-999.0,-999,0.00,,,-99.99,,2013-06-12 07:52:00,
2013-06-12 04:33:00,70.0,-99.9,29.80,West,262,-999.0,-999.0,-999,0.00,,,-99.99,,2013-06-12 08:33:00,
2013-06-12 04:43:00,70.0,-99.9,29.80,West,262,-999.0,-999.0,-999,0.00,,,-99.99,,2013-06-12 08:43:00,
2013-06-12 04:52:00,69.0,-99.9,29.80,West,262,-999.0,-999.0,-999,0.00,,,-99.99,,2013-06-12 08:52:00,
2013-06-12 05:33:00,69.0,-99.9,29.80,West,262,-999.0,-999.0,-999,0.00,,,-99.99,,2013-06-12 09:33:00,
2013-06-12 05:43:00,69.0,-99.9,29.80,West,262,-999.0,-999.0,-999,0.00,,,-99.99,,2013-06-12 09:43:00,
2013-06-12 05:52:00,70.0,-99.9,29.82,West,262,-999.0,-999.0,-999,0.00,,,-99.99,,2013-06-12 09:52:00,
2013-06-12 06:33:00,70.0,-99.9,29.82,West,262,-999.0,-999.0,-999,0.00,,,-99.99,,2013-06-12 10:33:00,
2013-06-12 06:43:00,70.0,-99.9,29.82,West,262,-999.0,-999.0,-999,0.00,,,-99.99,,2013-06-12 10:43:00,
2013-06-12 06:52:00,70.0,-99.9,29.83,West,262,-999.0,-999.0,-999,0.00,,,-99.99,,2013-06-12 10:52:00,
2013-06-12 07:34:00,70.0,-99.9,29.83,West,262,-999.0,-999.0,-999,0.00,,,-99.99,,2013-06-12 11:34:00,
2013-06-12 07:43:00,70.0,-99.9,29.83,West,262,-999.0,-999.0,-999,0.00,,,-99.99,,2013-06-12 11:43:00,
2013-06-12 07:52:00,71.0,-99.9,29.84,West,262,-999.0,-999.0,-999,0.00,,,-99.99,,2013-06-12 11:52:00,
2013-06-12 08:34:00,71.0,-99.9,29.84,West,262,-999.0,-999.0,-999,0.00,,,-99.99,,2013-06-12 12:34:00,
2013-06-12 08:43:00,71.0,-99.9,29.84,West,262,-999.0,-999.0,-999,0.00,,,-99.99,,2013-06-12 12:43:00,
2013-06-12 08:52:00,74.0,-99.9,29.83,West,262,-999.0,-999.0,-999,0.00,,,-99.99,,2013-06-12 12:52:00,
2013-06-12 09:43:00,74.0,-99.9,29.83,West,262,-999.0,-999.0,-999,0.00,,,-99.99,,2013-06-12 13:43:00,
2013-06-12 09:52:00,76.0,-99.9,29.82,West,262,-999.0,-999.0,-999,0.00,,,-99.99,,2013-06-12 13:52:00,
2013-06-12 10:33:00,76.0,-99.9,29.82,West,262,-999.0,-999.0,-999,0.00,,,-99.99,,2013-06-12 14:33:00,
2013-06-12 10:43:00,76.0,-99.9,29.82,West,262,-999.0,-999.0,-999,0.00,,,-99.99,,2013-06-12 14:43:00,
2013-06-12 11:52:00,80.0,-99.9,29.81,NW,316,-999.0,-999.0,-999,0.00,,,-99.99,,2013-06-12 15:52:00,
2013-06-12 12:33:00,80.0,-99.9,29.81,NW,316,-999.0,-999.0,-999,0.00,,,-99.99,,2013-06-12 16:33:00,
2013-06-12 12:43:00,80.0,-99.9,29.81,NW,316,-999.0,-999.0,-999,0.00,,,-99.99,,2013-06-12 16:43:00,
2013-06-12 12:52:00,81.0,-99.9,29.82,NW,316,-999.0,-999.0,-999,0.00,,,-99.99,,2013-06-12 16:52:00,
2013-06-12 13:33:00,81.0,-99.9,29.82,NW,316,-999.0,-999.0,-999,0.00,,,-99.99,,2013-06-12 17:33:00,
2013-06-12 13:43:00,81.0,-99.9,29.82,NW,316,-999.0,-999.0,-999,0.00,,,-99.99,,2013-06-12 17:43:00,
2013-06-12 13:52:00,83.0,-99.9,29.81,NW,316,-999.0,-999.0,-999,0.00,,,-99.99,,2013-06-12 17:52:00,
2013-06-12 14:43:00,83.0,-99.9,29.81,NW,316,-999.0,-999.0,-999,0.00,,,-99.99,,2013-06-12 18:43:00,
2013-06-12 14:52:00,83.0,-99.9,29.80,NW,316,-999.0,-999.0,-999,0.00,,,-99.99,,2013-06-12 18:52:00,
2013-06-12 15:33:00,83.0,-99.9,29.80,NW,316,-999.0,-999.0,-999,0.00,,,-99.99,,2013-06-12 19:33:00,
2013-06-12 15:43:00,83.0,-99.9,29.80,NW,316,-999.0,-999.0,-999,0.00,,,-99.99,,2013-06-12 19:43:00,
2013-06-12 15:52:00,83.0,-99.9,29.80,NW,316,-999.0,-999.0,-999,0.00,,,-99.99,,2013-06-12 19:52:00,
2013-06-12 16:33:00,83.0,-99.9,29.80,NW,316,-999.0,-999.0,-999,0.00,,,-99.99,,2013-06-12 20:33:00,
2013-06-12 16:43:00,83.0,-99.9,29.80,NW,316,-999.0,-999.0,-999,0.00,,,-99.99,,2013-06-12 20:43:00,
2013-06-12 16:52:00,83.0,-99.9,29.79,NW,316,-999.0,-999.0,-999,0.00,,,-99.99,,2013-06-12 20:52:00,
2013-06-12 17:33:00,83.0,-99.9,29.79,NW,316,-999.0,-999.0,-999,0.00,,,-99.99,,2013-06-12 21:33:00,
2013-06-12 17:43:00,83.0,-99.9,29.79,NW,316,-999.0,-999.0,-999,0.00,,,-99.99,,2013-06-12 21:43:00,
2013-06-12 18:52:00,71.0,-99.9,29.82,NW,316,-999.0,-999.0,-999,0.00,,,-99.99,,2013-06-12 22:52:00,
2013-06-12 19:32:00,71.0,-99.9,29.82,NW,316,-999.0,-999.0,-999,0.00,,,-99.99,,2013-06-12 23:32:00,
2013-06-12 19:43:00,71.0,-99.9,29.82,NW,316,-999.0,-999.0,-999,0.00,,,-99.99,,2013-06-12 23:43:00,
2013-06-12 19:52:00,69.0,-99.9,29.83,NW,316,-999.0,-999.0,-999,0.00,,,-99.99,,2013-06-12 23:52:00,
2013-06-12 20:33:00,69.0,-99.9,29.83,NW,316,-999.0,-999.0,-999,0.00,,,-99.99,,2013-06-13 00:33:00,
2013-06-12 20:43:00,69.0,-99.9,29.83,NW,316,-999.0,-999.0,-999,0.00,,,-99.99,,2013-06-13 00:43:00,
2013-06-12 20:52:00,67.0,-99.9,29.86,NW,316,-999.0,-999.0,-999,0.00,,,-99.99,,2013-06-13 00:52:00,
2013-06-12 21:33:00,67.0,-99.9,29.86,NW,316,-999.0,-999.0,-999,0.00,,,-99.99,,2013-06-13 01:33:00,
2013-06-12 21:43:00,67.0,-99.9,29.86,NW,316,-999.0,-999.0,-999,0.00,,,-99.99,,2013-06-13 01:43:00,
2013-06-12 21:52:00,69.0,-99.9,29.87,NW,316,-999.0,-999.0,-999,0.00,,,-99.99,,2013-06-13 01:52:00,
2013-06-12 22:33:00,69.0,-99.9,29.87,NW,316,-999.0,-999.0,-999,0.00,,,-99.99,,2013-06-13 02:33:00,
2013-06-12 22:43:00,69.0,-99.9,29.87,NW,316,-999.0,-999.0,-999,0.00,,,-99.99,,2013-06-13 02:43:00,
2013-06-12 22:52:00,69.0,-99.9,29.86,NW,316,-999.0,-999.0,-999,0.00,,,-99.99,,2013-06-13 02:52:00,
2013-06-12 23:33:00,69.0,-99.9,29.86,NW,316,-999.0,-999.0,-999,0.00,,,-99.99,,2013-06-13 03:33:00,
2013-06-12 23:43:00,69.0,-99.9,29.86,NW,316,-999.0,-999.0,-999,0.00,,,-99.99,,2013-06-13 03:43:00,
2013-06-12 23:52:00,68.0,-99.9,29.86,NW,316,-999.0,-999.0,-999,0.00,,,-99.99,,2013-06-13 03:52:00,